GFSFLT2_sfc_rhum_114.txt.gz
RH
69 77 80 98 96 94 94 93 94 94 95 95 96 96 95 94 94 93 92 89 88 94 94 95 95 95 95 96 94 88 42 44
68 77 74 66 71 96 94 94 94 95 95 96 97 97 96 95 95 94 92 90 92 94 95 95 95 95 95 95 94 92 46 40
75 76 78 69 60 72 92 95 95 96 92 97 92 63 69 75 77 93 94 94 94 94 94 95 95 95 95 95 96 46 42 39
74 76 79 80 54 63 65 62 61 63 62 68 62 60 60 56 72 96 97 96 95 94 94 95 90 56 65 88 54 41 41 42
69 74 75 80 62 70 59 58 55 59 63 61 60 60 64 60 62 70 74 89 68 74 75 59 56 48 48 55 47 49 41 41
59 66 71 75 72 71 70 60 72 72 66 65 59 72 63 62 54 55 61 64 61 62 59 59 58 55 51 52 52 48 43 46
50 59 64 65 74 69 73 67 56 67 73 76 64 67 73 66 54 53 53 58 62 60 59 64 67 62 56 55 54 50 50 47
28 49 60 59 63 70 69 66 55 68 72 74 78 65 66 72 59 54 52 58 59 64 60 61 63 61 62 60 55 50 53 53
23 35 49 62 63 63 63 59 58 60 74 81 86 80 66 74 75 59 53 58 65 68 67 63 64 66 65 62 58 57 56 53
18 23 35 55 62 59 55 54 57 54 65 62 75 85 78 74 77 76 65 70 71 64 68 69 64 68 65 69 63 60 58 56
19 24 28 50 58 59 61 60 56 50 53 55 61 72 76 69 70 80 82 84 80 67 65 72 70 69 66 66 67 63 60 57
32 26 28 32 47 55 50 56 57 53 50 50 57 63 68 70 56 74 85 90 85 81 78 68 67 70 62 60 62 62 63 56
44 49 48 31 26 44 46 58 58 55 52 53 55 60 68 65 62 70 90 91 88 85 89 86 84 75 82 82 72 73 70 59
51 49 48 48 33 25 40 44 52 53 51 56 58 62 64 65 66 75 88 90 93 89 90 94 92 86 88 82 91 78 71 67
52 51 50 50 52 43 27 42 46 53 63 68 64 62 65 71 72 81 90 87 93 91 88 90 94 94 75 64 77 69 57 58
55 55 54 52 52 51 50 31 43 50 58 65 64 68 69 69 77 82 87 88 90 92 84 84 87 94 93 69 56 50 66 70
59 59 58 58 58 57 55 46 40 41 52 60 66 78 81 79 82 82 87 84 90 90 90 88 86 82 88 84 72 62 64 79
60 63 62 64 68 66 65 63 48 43 46 56 61 79 89 86 86 85 86 87 89 91 89 87 86 86 84 67 68 71 74 79
66 67 72 71 76 75 74 69 60 54 47 52 61 83 89 91 89 89 88 86 87 90 91 88 88 90 81 72 61 62 59 59
73 77 81 78 80 81 79 71 55 50 49 46 54 77 80 83 88 88 87 84 88 88 92 92 91 92 85 80 67 66 59 58

GFSFLT2_sfc_rhum_117.txt.gz
RH
66 70 77 97 95 94 95 95 96 96 95 95 95 95 94 93 93 93 93 93 94 93 93 94 94 94 94 94 93 90 60 41
62 68 65 65 66 95 94 95 95 96 95 96 97 96 94 94 94 94 92 91 92 93 94 94 94 94 95 95 94 91 57 47
73 71 68 59 56 68 91 94 94 96 92 97 93 66 71 76 78 92 94 92 92 94 94 95 95 95 95 95 94 50 43 43
80 83 77 62 46 62 62 59 59 62 62 71 66 59 61 52 67 94 95 95 95 95 95 95 94 61 70 90 60 49 50 48
69 83 83 78 59 50 52 51 54 57 60 59 61 54 56 54 56 64 70 90 76 80 80 68 63 50 48 55 52 53 55 52
54 67 76 78 64 50 49 44 50 51 54 65 60 55 62 57 52 58 66 60 65 65 62 62 58 54 66 57 52 62 56 57
41 57 67 73 76 63 67 60 49 50 51 58 54 51 60 57 50 52 59 51 61 62 65 60 61 54 54 58 60 56 60 48
20 29 56 66 70 70 70 65 52 58 54 58 63 54 61 52 52 44 46 45 57 57 61 71 67 61 63 57 60 52 62 61
17 24 31 51 65 61 67 58 56 49 53 68 80 66 62 64 64 48 43 43 65 61 64 69 77 69 64 60 56 55 64 63
15 15 23 33 45 50 55 55 57 50 50 57 71 79 63 63 74 63 48 47 54 72 69 66 78 75 70 64 66 59 62 60
24 29 29 30 36 44 52 59 56 51 49 54 62 70 71 61 62 74 65 51 58 64 76 73 70 65 69 75 68 61 61 54
35 34 39 39 32 38 40 47 51 58 52 49 59 60 69 69 57 70 74 66 68 65 72 74 71 67 63 63 73 71 61 59
38 42 44 41 38 27 31 47 49 52 58 54 54 55 63 68 60 65 74 78 80 78 70 75 78 74 77 70 77 74 71 61
45 44 43 43 38 36 30 30 36 44 49 55 56 56 60 62 64 57 73 76 88 85 83 82 73 74 76 81 88 80 66 59
45 46 46 47 48 43 39 39 35 43 53 54 55 57 60 65 64 61 62 74 78 86 88 86 90 85 72 68 71 60 51 60
45 47 49 48 50 50 52 44 37 33 47 54 53 60 60 62 66 66 67 74 78 82 82 86 86 92 89 68 61 45 47 55
48 51 52 51 53 58 58 56 47 42 40 54 59 61 64 63 67 70 73 76 78 81 86 89 84 81 86 76 70 61 60 58
52 54 53 54 57 61 67 69 61 53 50 47 60 61 63 69 69 75 78 80 80 79 85 87 87 84 83 74 71 70 61 69
55 56 59 58 61 63 67 70 70 65 59 55 59 63 66 72 76 84 80 80 80 81 89 88 87 88 85 83 65 62 57 59
64 64 66 63 67 68 70 73 74 65 59 54 59 54 61 70 76 82 83 79 81 85 86 88 89 89 87 84 70 65 66 58

GFSFLT2_sfc_rhum_120.txt.gz
RH
81 80 85 95 95 96 97 97 96 95 95 95 95 95 95 93 92 92 93 93 94 93 92 93 93 93 93 94 94 93 88 85
79 79 78 80 85 95 96 96 97 96 96 96 97 96 94 94 94 94 93 94 94 93 93 93 94 94 94 95 94 93 84 87
81 80 76 75 70 81 95 94 96 97 95 97 98 86 90 91 89 92 93 94 94 94 93 94 95 95 95 94 93 81 64 90
84 85 83 76 56 77 80 79 86 88 85 92 86 82 82 73 80 95 95 95 94 94 94 95 97 87 95 97 91 75 65 75
79 87 89 84 70 76 71 70 74 78 80 83 84 76 79 75 78 85 94 98 92 95 96 91 86 76 80 85 79 72 73 71
76 83 88 90 84 86 71 66 72 73 74 79 78 77 79 71 73 82 86 86 88 89 88 87 82 76 70 73 71 69 72 86
59 79 88 87 86 87 87 70 70 70 74 74 74 73 75 74 68 75 76 80 80 88 81 80 78 76 78 70 66 69 69 85
32 40 75 80 87 85 89 85 84 73 71 72 76 74 76 73 72 71 73 69 74 80 82 78 76 76 78 75 68 68 68 72
36 37 39 62 80 84 87 87 82 85 71 77 74 75 75 75 72 72 71 67 72 81 81 82 81 76 78 79 72 73 72 74
42 40 51 57 58 80 83 85 87 73 80 69 76 83 80 79 75 82 76 74 68 80 78 88 84 86 84 87 81 77 74 73
46 50 51 60 59 53 57 77 82 78 67 70 81 79 77 83 73 76 83 81 75 75 80 85 87 87 84 84 82 83 81 68
47 48 54 58 55 57 48 47 69 71 69 62 72 78 78 78 78 80 78 82 84 74 83 89 83 86 74 77 90 88 82 84
46 51 56 53 52 54 52 50 47 65 65 67 68 70 80 81 77 80 80 77 80 80 82 88 88 87 89 88 89 90 88 84
47 47 51 52 51 51 55 57 55 55 60 66 66 70 72 79 78 75 80 78 79 89 84 86 86 88 90 88 97 96 92 83
44 47 49 53 57 52 51 52 51 52 52 54 67 66 69 76 78 75 74 80 81 83 87 85 89 90 84 92 93 93 90 81
50 50 51 50 56 58 64 64 66 61 60 53 60 66 65 68 76 76 73 79 82 85 82 79 86 89 90 75 77 76 77 92
54 55 52 54 56 61 62 67 66 62 62 62 61 63 69 67 73 76 80 81 82 86 86 84 80 79 86 85 82 79 85 90
57 58 56 57 60 62 65 67 67 72 72 71 67 71 69 68 68 76 78 83 82 88 88 88 84 80 81 78 80 85 81 81
59 60 62 61 63 65 65 67 70 71 74 75 74 71 75 69 72 76 78 81 79 85 90 88 86 84 82 86 76 77 75 81
66 70 71 66 68 68 68 70 72 70 70 74 74 73 69 71 72 69 74 80 82 85 86 88 87 86 84 83 85 80 78 73

GFSFLT2_sfc_rhum_123.txt.gz
RH
94 95 92 94 96 98 97 96 95 95 95 95 95 96 96 94 93 93 94 94 95 93 92 92 92 93 92 94 96 94 91 93
94 96 97 98 98 98 98 97 97 96 96 96 97 97 96 94 94 94 94 95 96 93 92 93 93 93 93 95 96 94 91 91
95 94 93 95 96 93 97 97 97 97 96 97 99 97 96 94 95 95 96 96 96 94 93 94 94 94 95 94 94 96 83 94
94 93 92 89 72 94 98 95 98 97 98 95 98 97 97 90 93 95 96 97 96 95 94 95 97 99 99 95 98 91 80 89
93 93 92 88 81 94 93 97 99 99 98 99 97 91 94 91 92 93 98 97 98 98 98 99 98 97 98 98 96 91 87 84
93 92 93 93 96 94 85 84 90 95 95 96 96 93 96 90 91 95 98 98 98 99 99 99 97 93 91 94 91 86 86 95
91 92 94 94 91 97 97 88 90 82 86 89 90 93 92 89 90 90 94 97 96 98 98 96 95 92 91 92 84 79 86 93
48 56 73 93 94 95 98 97 95 88 80 79 85 82 89 88 84 87 89 90 91 95 95 95 91 91 90 87 88 78 87 89
50 50 55 62 75 82 94 94 90 98 93 83 78 81 77 85 82 90 84 81 87 89 93 91 93 88 89 86 80 77 81 91
48 48 54 56 54 71 83 86 95 91 86 94 80 78 79 86 80 81 84 80 83 87 88 93 89 91 91 89 85 87 83 81
47 50 53 55 54 56 57 73 87 90 91 88 83 87 79 91 82 81 88 85 85 82 88 87 90 93 90 86 94 92 88 79
45 46 52 53 55 56 56 58 68 77 84 89 82 74 77 79 95 94 88 96 92 81 84 92 89 88 80 85 95 94 93 92
47 49 52 54 57 61 62 65 61 68 75 68 84 78 77 88 84 96 92 84 89 89 86 93 97 94 96 97 97 95 94 92
52 52 53 54 54 56 59 60 60 60 59 68 69 73 82 82 88 80 90 85 87 92 85 90 91 93 93 95 99 97 96 91
55 55 56 56 54 55 57 59 62 67 67 66 66 66 75 82 77 79 82 89 83 81 88 85 92 95 87 94 98 97 98 98
56 57 58 53 57 60 64 67 72 68 70 68 68 72 71 73 76 79 77 84 88 82 86 87 88 90 92 76 88 88 93 98
60 60 59 58 59 62 66 69 66 65 67 70 71 70 73 71 79 76 86 89 88 88 80 95 88 82 84 85 86 95 92 95
64 64 64 62 64 64 68 70 68 68 68 74 74 76 76 73 74 83 78 86 87 86 89 87 91 92 86 82 83 80 87 96
69 66 66 67 68 68 69 68 68 69 70 73 75 78 82 76 77 78 87 74 80 85 91 92 96 98 92 88 83 80 75 79
75 77 77 72 75 76 73 71 73 73 72 72 74 75 78 78 80 80 80 83 79 80 88 92 94 95 89 87 82 81 84 82